千帆星座-87 (QIANFAN-87)

导读

QIANFAN-87 是中国北斗卫星导航系统的一部分,属于北斗三号系统的地球静止轨道卫星。该卫星由中国自主研发,主要用于提供高精度定位、导航和授时服务,增强区域及全球服务能力。QIANFAN-87 于2023年成功发射,进一步完善了北斗系统的星座布局,提升系统在复杂环境下的稳定性和可靠性,广泛服务于交通、农业、通信、应急救援等多个领域,推动中国在全球卫星导航领域的竞争力。

基本信息
目录编号:
63173
目录名称:
QIANFAN-87
国际标识:
2025-046Q
轨道中心:
EARTH
卫星名称:
千帆星座-87
卫星全名:
千帆星座-87 (QIANFAN-87)
卫星状态:
在轨 (已飞行549 天)
发射日期:
2025-03-11 UTC
国别 :
中国 (CN)
星等 :
--
该卫星已列入 空间交会检测服务 Space Conjunction Data Service (SCDS) ,当前飞行风险评估等级: 无高风险
轨道信息
数据来源 国际轨道数据 AOE轨道数据
星历时间 2026-09-11T06:20:18+0800
8小时前
查看轨道信息
2026-09-09T23:00:00+0800
1天前
查看轨道信息
半长轴 7446.602km 7446.605km
偏心率 0.0013453 0.0013153
轨道倾角 88.966° 88.965°
近地点辐角 65.739° 70.695°
升交点赤经 291.635° 291.772°
平近点角 294.517° 62.488°
近地点 1058.447km 1058.673km
远地点 1078.483km 1078.263km
周期 106.585分钟 106.585分钟
每日圈数 13.510319 13.51031
详细信息
卫星平台:
87
覆盖范围:
全球
运营商:
上海垣信卫星科技有限公司
运营商所在国:
中国
使用方式:
暂无
卫星简介
千帆星座,也被称为“G60星链”计划,是中国版“星链”的重要组成部分,旨在打造一个由1.4万多颗低轨宽频多媒体卫星构成的庞大星座。千帆星座计划由上海垣信卫星科技有限公司负责实施,于2023年启动建设。该项目是我国第二个低轨卫星大星座,旨在通过构建庞大的卫星网络,为全球用户提供高质量的通信和宽带互联网服务。
2D轨道图
3D轨道图
轨道高度分析图
轨道倾角分析图
轨道综合分析图
查看轨道综合分析图
与全量物体交会距离演化趋势
与全量物体交会风险概率演化趋势